DW6970 Weather Reports


Display with metric or nautical units.
time (UTC)temp
F
wind
direction
speed
MPH
gust
MPH
rain 1hr
in
rain 24hr
in
rain mn
in
humidity
%
barometer
mb
20260507095126 41 123 0.0 1.0 0.00 0.00 0.00 66 1215.0
20260507094620 41 113 0.0 1.0 0.00 0.00 0.00 66 1215.0
20260507094332 41 113 0.0 2.0 0.00 0.00 0.00 66 1215.0
20260507093605 41 113 0.0 2.0 0.00 0.00 0.00 65 1215.0
20260507093102 41 124 0.0 0.0 0.00 0.00 0.00 65 1215.0
20260507092556 41 124 0.0 1.0 0.00 0.00 0.00 66 1215.0
20260507092050 42 124 0.0 1.0 0.00 0.00 0.00 66 1215.0
20260507091544 42 123 0.0 0.0 0.00 0.00 0.00 66 1215.2
20260507091034 42 123 0.0 0.0 0.00 0.00 0.00 65 1215.2
20260507090528 42 123 0.0 2.0 0.00 0.00 0.00 64 1215.2
20260507090247 42 123 0.0 2.0 0.00 0.00 0.00 63 1215.2
20260507085520 42 125 0.0 1.0 0.00 0.00 0.00 63 1215.2
20260507085014 42 125 0.0 0.0 0.00 0.00 0.00 62 1215.2
20260507084511 43 125 0.0 0.0 0.00 0.00 0.00 62 1215.2
20260507084011 43 125 0.0 0.0 0.00 0.00 0.00 62 1215.2
20260507083509 43 125 0.0 2.0 0.00 0.00 0.00 62 1215.2
20260507083231 43 125 0.0 2.0 0.00 0.00 0.00 61 1215.2
20260507082505 43 128 0.0 1.0 0.00 0.00 0.00 61 1215.2
20260507082006 43 115 0.0 0.0 0.00 0.00 0.00 60 1215.2
20260507081506 43 115 0.0 0.0 0.00 0.00 0.00 60 1215.2
20260507081006 44 115 0.0 0.0 0.00 0.00 0.00 59 1215.2
20260507080506 44 115 0.0 0.0 0.00 0.00 0.00 60 1215.2
20260507080005 44 115 0.0 0.0 0.00 0.00 0.00 60 1215.2
20260507075506 44 115 0.0 0.0 0.00 0.00 0.00 59 1215.2
20260507075000 44 115 0.0 0.0 0.00 0.00 0.00 59 1215.2
20260507074451 44 115 0.0 0.0 0.00 0.00 0.00 58 1215.2
20260507073949 44 115 0.0 0.0 0.00 0.00 0.00 59 1215.2
20260507073449 44 115 0.0 2.0 0.00 0.00 0.00 59 1215.2
20260507072949 44 115 0.0 2.0 0.00 0.00 0.00 59 1215.2
20260507072450 45 115 0.0 2.0 0.00 0.00 0.00 59 1215.2
20260507071951 45 116 0.0 2.0 0.00 0.00 0.00 58 1215.2
20260507071449 45 61 0.0 0.0 0.00 0.00 0.00 57 1215.2
20260507070949 45 61 0.0 0.0 0.00 0.00 0.00 57 1215.2
20260507070450 45 61 0.0 2.0 0.00 0.00 0.00 56 1215.2
20260507065944 45 61 0.0 2.0 0.00 0.00 0.00 57 1215.0
20260507065654 45 84 0.0 2.0 0.00 0.00 0.00 57 1215.0
20260507064925 46 5 0.0 0.0 0.00 0.00 0.00 56 1215.0
20260507064423 46 5 0.0 0.0 0.00 0.00 0.00 57 1214.9
20260507063917 46 5 0.0 0.0 0.00 0.00 0.00 56 1214.9
20260507063641 46 5 0.0 1.0 0.00 0.00 0.00 56 1214.9
20260507062901 46 5 0.0 2.0 0.00 0.00 0.00 56 1214.7
20260507062355 46 131 0.0 2.0 0.00 0.00 0.00 55 1214.7
20260507061854 47 143 0.0 2.0 0.00 0.00 0.00 55 1214.7
20260507061344 47 181 0.0 2.0 0.00 0.00 0.00 53 1214.6
20260507060841 47 188 0.0 2.0 0.00 0.00 0.00 53 1214.6
20260507060335 47 189 0.0 0.0 0.00 0.00 0.00 52 1214.6
20260507055830 47 189 0.0 0.0 0.00 0.00 0.00 52 1214.6
20260507055319 47 189 0.0 0.0 0.00 0.00 0.00 53 1214.6
20260507054813 48 189 0.0 0.0 0.00 0.00 0.00 52 1214.6
20260507054534 48 189 0.0 0.0 0.00 0.00 0.00 52 1214.6
20260507054026 48 189 0.0 0.0 0.00 0.00 0.00 51 1214.6
20260507053531 49 189 0.0 0.0 0.00 0.00 0.00 52 1214.6
20260507052748 49 189 0.0 2.0 0.00 0.00 0.00 51 1214.5
20260507052247 49 192 0.0 2.0 0.00 0.00 0.00 50 1214.5
20260507051736 49 295 0.0 0.0 0.00 0.00 0.00 49 1214.5
20260507051231 49 294 0.0 1.0 0.00 0.00 0.00 49 1214.5
20260507050730 50 294 0.0 1.0 0.00 0.00 0.00 49 1214.5
20260507050224 50 247 0.0 0.0 0.00 0.00 0.00 49 1214.5
20260507045718 50 247 0.0 0.0 0.00 0.00 0.00 48 1214.3
20260507045212 51 247 0.0 0.0 0.00 0.00 0.00 47 1214.3
20260507044930 51 247 0.0 0.0 0.00 0.00 0.00 46 1214.3
20260507044155 51 247 0.0 0.0 0.00 0.00 0.00 45 1214.1
20260507043653 52 247 0.0 0.0 0.00 0.00 0.00 46 1214.1
20260507043148 52 247 0.0 0.0 0.00 0.00 0.00 46 1214.0
20260507042641 53 247 0.0 0.0 0.00 0.00 0.00 45 1214.0
20260507042131 53 247 0.0 0.0 0.00 0.00 0.00 44 1214.0
20260507041629 53 247 0.0 0.0 0.00 0.00 0.00 43 1213.9
20260507041119 54 247 0.0 0.0 0.00 0.00 0.00 43 1213.9
20260507040612 54 247 0.0 0.0 0.00 0.00 0.00 43 1213.9
20260507040111 55 247 0.0 0.0 0.00 0.00 0.00 43 1213.7
20260507035606 55 247 0.0 0.0 0.00 0.00 0.00 43 1213.7
20260507035100 56 247 0.0 0.0 0.00 0.00 0.00 43 1213.7
20260507034815 56 247 0.0 0.0 0.00 0.00 0.00 41 1213.4
20260507034047 56 247 0.0 0.0 0.00 0.00 0.00 41 1213.4
20260507033541 57 247 0.0 0.0 0.00 0.00 0.00 39 1213.4
20260507033031 58 247 0.0 0.0 0.00 0.00 0.00 38 1213.3
20260507032529 58 247 0.0 0.0 0.00 0.00 0.00 38 1213.3
20260507032019 59 247 0.0 0.0 0.00 0.00 0.00 36 1213.3
20260507031741 60 247 0.0 2.0 0.00 0.00 0.00 37 1212.8
20260507031012 60 247 0.0 2.0 0.00 0.00 0.00 37 1212.8
20260507030506 61 263 0.0 0.0 0.00 0.00 0.00 35 1212.8
20260507025959 61 263 0.0 0.0 0.00 0.00 0.00 34 1212.6
20260507025713 62 263 0.0 0.0 0.00 0.00 0.00 33 1212.6
20260507024947 63 266 0.0 2.0 0.00 0.00 0.00 32 1212.6
20260507024656 64 273 0.0 2.0 0.00 0.00 0.00 30 1212.3
20260507023935 64 273 0.0 2.0 0.00 0.00 0.00 30 1212.3
20260507023429 65 273 0.0 2.0 0.00 0.00 0.00 29 1212.3
20260507022919 65 283 0.0 0.0 0.00 0.00 0.00 28 1212.2
20260507022416 66 284 0.0 2.0 0.00 0.00 0.00 28 1212.2
20260507021911 67 284 0.0 2.0 0.00 0.00 0.00 27 1212.2
20260507021405 67 235 0.0 2.0 0.00 0.00 0.00 27 1211.9
20260507020855 67 246 0.0 3.0 0.00 0.00 0.00 27 1211.9
20260507020353 68 242 1.0 5.0 0.00 0.00 0.00 26 1211.9
20260507015851 69 263 1.0 5.0 0.00 0.00 0.00 26 1211.7
20260507015348 69 196 0.0 4.0 0.00 0.00 0.00 26 1211.7
20260507014847 69 223 0.0 4.0 0.00 0.00 0.00 25 1211.7
20260507014608 70 267 0.0 4.0 0.00 0.00 0.00 26 1211.6
20260507013847 70 246 1.0 4.0 0.00 0.00 0.00 25 1211.6
20260507013347 70 0 2.0 7.0 0.00 0.00 0.00 25 1211.6
20260507012848 71 224 4.0 7.0 0.00 0.00 0.00 26 1211.6
20260507012350 71 191 4.0 11.0 0.00 0.00 0.00 24 1211.6
20260507011850 72 196 4.0 11.0 0.00 0.00 0.00 24 1211.6
20260507011349 72 217 5.0 11.0 0.00 0.00 0.00 24 1211.5
20260507011344 73 205 5.0 11.0 0.00 0.00 0.00 23 1211.5
20260507010347 74 251 4.0 10.0 0.00 0.00 0.00 23 1211.5
20260507005848 74 174 4.0 10.0 0.00 0.00 0.00 23 1211.3
20260507005349 74 180 4.0 8.0 0.00 0.00 0.00 23 1211.3
20260507004846 74 193 4.0 10.0 0.00 0.00 0.00 23 1211.3
20260507004345 75 195 4.0 10.0 0.00 0.00 0.00 20 1211.1
20260507003845 75 248 3.0 10.0 0.00 0.00 0.00 21 1211.1
20260507003609 75 235 3.0 10.0 0.00 0.00 0.00 21 1211.1
20260507002848 75 246 4.0 10.0 0.00 0.00 0.00 21 1211.1
20260507002341 76 218 3.0 8.0 0.00 0.00 0.00 20 1211.1
20260507001841 76 224 4.0 9.0 0.00 0.00 0.00 20 1211.1
20260507001334 76 227 4.0 9.0 0.00 0.00 0.00 20 1211.0
20260507001058 76 195 4.0 10.0 0.00 0.00 0.00 21 1211.0
20260507000317 76 224 3.0 10.0 0.00 0.00 0.00 21 1211.0
20260506235816 75 249 3.0 9.0 0.00 0.00 0.00 22 1211.0
20260506235801 75 306 2.0 8.0 0.00 0.00 0.00 21 1211.0
20260506234800 75 284 2.0 6.0 0.00 0.00 0.00 21 1211.0
20260506234258 75 329 2.0 6.0 0.00 0.00 0.00 21 1211.1
20260506234234 75 237 2.0 6.0 0.00 0.00 0.00 20 1211.1
20260506233246 75 200 2.0 6.0 0.00 0.00 0.00 21 1211.1
20260506232956 75 269 2.0 6.0 0.00 0.00 0.00 22 1211.1
20260506232234 75 267 3.0 11.0 0.00 0.00 0.00 21 1211.1
20260506231728 76 231 3.0 11.0 0.00 0.00 0.00 21 1211.1
20260506231217 76 258 2.0 8.0 0.00 0.00 0.00 21 1211.3
20260506230715 76 224 2.0 11.0 0.00 0.00 0.00 19 1211.3
20260506230203 77 250 3.0 11.0 0.00 0.00 0.00 20 1211.3
20260506225704 78 272 3.0 9.0 0.00 0.00 0.00 21 1211.3
20260506225158 78 190 4.0 14.0 0.00 0.00 0.00 19 1211.3
20260506224647 78 241 4.0 14.0 0.00 0.00 0.00 20 1211.5
20260506224146 78 200 4.0 11.0 0.00 0.00 0.00 19 1211.5
20260506223636 78 186 5.0 11.0 0.00 0.00 0.00 21 1211.5
20260506223134 77 196 5.0 13.0 0.00 0.00 0.00 21 1211.6
20260506222853 77 240 4.0 13.0 0.00 0.00 0.00 21 1211.6
20260506222344 77 297 3.0 9.0 0.00 0.00 0.00 22 1211.6
20260506221616 77 254 4.0 12.0 0.00 0.00 0.00 20 1211.7
20260506221109 77 190 4.0 12.0 0.00 0.00 0.00 20 1211.7
20260506220604 77 280 3.0 9.0 0.00 0.00 0.00 20 1211.7
20260506220054 77 302 3.0 9.0 0.00 0.00 0.00 21 1211.9
20260506215547 76 234 4.0 10.0 0.00 0.00 0.00 20 1211.9
20260506215046 77 225 3.0 10.0 0.00 0.00 0.00 20 1211.9
20260506214539 77 96 3.0 10.0 0.00 0.00 0.00 21 1212.2
20260506214250 77 242 4.0 10.0 0.00 0.00 0.00 20 1212.2
20260506213522 77 260 5.0 11.0 0.00 0.00 0.00 22 1212.2
20260506213021 77 225 5.0 13.0 0.00 0.00 0.00 21 1212.3
20260506212510 76 209 4.0 13.0 0.00 0.00 0.00 22 1212.3
20260506212010 76 209 3.0 12.0 0.00 0.00 0.00 20 1212.3
20260506211503 76 225 3.0 12.0 0.00 0.00 0.00 21 1212.5
20260506211218 76 223 3.0 10.0 0.00 0.00 0.00 22 1212.5
20260506210452 76 248 4.0 10.0 0.00 0.00 0.00 22 1212.5
20260506205942 75 195 3.0 9.0 0.00 0.00 0.00 21 1212.7
20260506205440 75 251 3.0 8.0 0.00 0.00 0.00 23 1212.7
20260506204928 76 333 3.0 8.0 0.00 0.00 0.00 21 1212.7
20260506204428 76 214 2.0 18.0 0.00 0.00 0.00 22 1212.7
20260506203921 76 223 3.0 18.0 0.00 0.00 0.00 22 1212.7
20260506203416 76 274 4.0 18.0 0.00 0.00 0.00 23 1212.7
20260506203133 76 244 4.0 18.0 0.00 0.00 0.00 24 1212.8
20260506202643 76 296 4.0 10.0 0.00 0.00 0.00 22 1212.8
20260506201910 75 250 4.0 10.0 0.00 0.00 0.00 24 1212.8
20260506201409 75 265 4.0 10.0 0.00 0.00 0.00 22 1212.8
20260506200909 75 259 4.0 10.0 0.00 0.00 0.00 24 1212.8
20260506200410 75 191 5.0 10.0 0.00 0.00 0.00 23 1212.8
20260506195909 74 202 4.0 10.0 0.00 0.00 0.00 23 1213.1
20260506195408 74 225 3.0 10.0 0.00 0.00 0.00 25 1213.1
20260506194906 74 239 3.0 11.0 0.00 0.00 0.00 25 1213.1
20260506194408 74 193 3.0 11.0 0.00 0.00 0.00 23 1213.1
20260506193909 74 226 4.0 11.0 0.00 0.00 0.00 24 1213.1
20260506193630 73 238 4.0 11.0 0.00 0.00 0.00 25 1213.1
20260506192908 73 217 2.0 10.0 0.00 0.00 0.00 26 1213.1
20260506192410 73 279 2.0 9.0 0.00 0.00 0.00 25 1213.1
20260506191903 73 290 2.0 9.0 0.00 0.00 0.00 25 1213.1
20260506191612 73 327 2.0 7.0 0.00 0.00 0.00 26 1213.3
20260506190852 73 340 2.0 7.0 0.00 0.00 0.00 25 1213.3
20260506190352 72 271 2.0 7.0 0.00 0.00 0.00 25 1213.3
20260506185852 72 257 2.0 7.0 0.00 0.00 0.00 27 1213.3
20260506185351 71 317 2.0 6.0 0.00 0.00 0.00 30 1213.3
20260506184851 71 317 2.0 8.0 0.00 0.00 0.00 26 1213.3
20260506184351 71 296 3.0 8.0 0.00 0.00 0.00 28 1213.4
20260506183853 71 234 2.0 7.0 0.00 0.00 0.00 26 1213.4
20260506183620 70 210 2.0 7.0 0.00 0.00 0.00 26 1213.4
20260506183104 70 222 2.0 7.0 0.00 0.00 0.00 27 1213.4
20260506182816 70 278 2.0 7.0 0.00 0.00 0.00 28 1213.4
20260506181824 70 247 1.0 7.0 0.00 0.00 0.00 29 1213.4
20260506181753 69 317 1.0 4.0 0.00 0.00 0.00 29 1213.5
20260506180807 69 337 2.0 8.0 0.00 0.00 0.00 30 1213.5
20260506180257 69 256 3.0 7.0 0.00 0.00 0.00 30 1213.5
20260506175749 69 261 2.0 8.0 0.00 0.00 0.00 28 1213.7
20260506175249 69 298 2.0 8.0 0.00 0.00 0.00 30 1213.7
20260506174743 69 0 3.0 10.0 0.00 0.00 0.00 29 1213.7
20260506174237 69 250 2.0 10.0 0.00 0.00 0.00 31 1213.8
20260506173731 68 240 2.0 8.0 0.00 0.00 0.00 31 1213.8
20260506173225 68 154 2.0 6.0 0.00 0.00 0.00 30 1213.8
20260506172938 68 247 1.0 5.0 0.00 0.00 0.00 30 1213.8
20260506172654 67 260 2.0 5.0 0.00 0.00 0.00 32 1213.8
20260506171707 66 200 1.0 7.0 0.00 0.00 0.00 32 1213.8
20260506171201 65 233 1.0 7.0 0.00 0.01 0.00 35 1213.7
20260506170654 65 329 1.0 7.0 0.00 0.01 0.00 34 1213.7
20260506170144 64 338 2.0 7.0 0.00 0.02 0.00 34 1213.5
20260506165914 64 326 2.0 6.0 0.00 0.03 0.00 34 1213.5
20260506165137 64 321 2.0 6.0 0.00 0.04 0.00 34 1213.5
20260506164632 64 234 2.0 5.0 0.00 0.04 0.00 34 1213.4
20260506164121 64 266 2.0 6.0 0.00 0.04 0.00 34 1213.4
20260506163846 64 267 3.0 9.0 0.00 0.04 0.00 33 1213.4
20260506163109 63 241 4.0 9.0 0.00 0.05 0.00 35 1213.4
20260506162831 63 269 4.0 9.0 0.00 0.05 0.00 35 1213.4
20260506162102 63 251 3.0 9.0 0.00 0.05 0.00 36 1213.4
20260506161812 63 237 2.0 6.0 0.00 0.06 0.00 35 1213.4
20260506161050 62 236 1.0 5.0 0.00 0.06 0.00 39 1213.4
20260506160807 62 24 1.0 5.0 0.00 0.06 0.00 38 1213.4
20260506160038 61 328 1.0 4.0 0.00 0.06 0.00 39 1213.3
20260506155528 61 246 1.0 4.0 0.00 0.06 0.00 40 1213.3
20260506155025 60 341 1.0 4.0 0.00 0.06 0.00 44 1213.3
20260506154520 59 330 1.0 3.0 0.00 0.10 0.00 47 1213.4
20260506154232 58 181 0.0 2.0 0.00 0.11 0.00 42 1213.4
20260506153458 58 53 1.0 4.0 0.00 0.13 0.00 43 1213.4
20260506152957 58 248 1.0 4.0 0.00 0.13 0.00 49 1213.3
20260506152712 57 11 1.0 4.0 0.00 0.13 0.00 44 1213.3
20260506151946 57 330 0.0 4.0 0.00 0.13 0.00 50 1213.3
20260506151439 56 15 0.0 2.0 0.00 0.13 0.00 52 1213.3
20260506150927 55 34 0.0 2.0 0.00 0.13 0.00 50 1213.3
20260506150427 54 355 0.0 2.0 0.00 0.13 0.00 58 1213.3
20260506145922 53 244 0.0 3.0 0.00 0.13 0.00 56 1213.3
20260506145415 52 210 1.0 3.0 0.00 0.13 0.00 59 1213.3
20260506144905 51 99 0.0 2.0 0.00 0.13 0.00 59 1213.3
20260506144358 50 111 0.0 2.0 0.00 0.13 0.00 64 1213.3
20260506144343 48 139 0.0 2.0 0.00 0.13 0.00 68 1213.3
20260506143347 47 123 0.0 2.0 0.00 0.13 0.00 72 1213.3
20260506142841 45 58 0.0 2.0 0.00 0.13 0.00 78 1213.3
20260506142335 44 25 0.0 2.0 0.00 0.13 0.00 84 1213.3
20260506141825 42 99 0.0 1.0 0.00 0.13 0.00 91 1213.3
20260506141323 41 105 0.0 1.0 0.00 0.13 0.00 94 1213.2
20260506140817 40 132 0.0 0.0 0.00 0.13 0.00 94 1213.2
20260506140307 40 132 0.0 2.0 0.00 0.13 0.00 94 1213.2
20260506135805 38 135 0.0 2.0 0.00 0.13 0.00 94 1213.0
20260506135526 37 126 0.0 0.0 0.00 0.13 0.00 93 1213.0
20260506134748 35 183 0.0 0.0 0.00 0.13 0.00 93 1213.0
20260506134729 34 183 0.0 0.0 0.00 0.13 0.00 92 1212.8
20260506133747 33 183 0.0 0.0 0.00 0.13 0.00 91 1212.8
20260506133246 33 183 0.0 0.0 0.00 0.13 0.00 90 1212.8
20260506133008 32 183 0.0 0.0 0.00 0.13 0.00 89 1212.7
20260506132505 32 183 0.0 0.0 0.00 0.13 0.00 88 1212.7
20260506131744 32 183 0.0 0.0 0.00 0.13 0.00 88 1212.7
20260506131244 32 183 0.0 0.0 0.00 0.13 0.00 87 1212.5
20260506131012 32 183 0.0 0.0 0.00 0.13 0.00 87 1212.5
20260506130511 32 183 0.0 0.0 0.00 0.13 0.00 87 1212.5
20260506125746 32 183 0.0 0.0 0.00 0.13 0.00 87 1212.2
20260506125246 32 183 0.0 0.0 0.00 0.13 0.00 87 1212.2
20260506125008 32 183 0.0 0.0 0.00 0.13 0.00 87 1212.2
20260506124245 33 183 0.0 0.0 0.00 0.13 0.00 87 1212.2
20260506123744 33 183 0.0 0.0 0.00 0.13 0.00 87 1212.2
20260506123245 33 183 0.0 0.0 0.00 0.13 0.00 87 1212.2
20260506122745 33 183 0.0 0.0 0.00 0.13 0.00 87 1211.8
20260506122244 33 183 0.0 0.0 0.00 0.13 0.00 87 1211.8
20260506122229 33 183 0.0 0.0 0.00 0.13 0.00 87 1211.8
20260506121616 33 183 0.0 0.0 0.00 0.13 0.00 87 1211.7
20260506121527 33 183 0.0 0.0 0.00 0.13 0.00 87 1211.7
20260506120233 33 183 0.0 0.0 0.00 0.13 0.00 87 1211.7
20260506115727 33 183 0.0 0.0 0.00 0.13 0.00 87 1211.7
20260506115450 33 183 0.0 0.0 0.00 0.13 0.00 87 1211.7
20260506114945 33 183 0.0 0.0 0.00 0.13 0.00 87 1211.7
20260506114215 33 183 0.0 0.0 0.00 0.13 0.00 87 1211.8
20260506113703 33 183 0.0 0.0 0.00 0.13 0.00 87 1211.8
20260506113203 33 183 0.0 0.0 0.00 0.13 0.00 87 1211.8
20260506112652 33 183 0.0 0.0 0.00 0.13 0.00 86 1211.8
20260506112146 33 183 0.0 0.0 0.00 0.13 0.00 85 1211.8
20260506111645 33 183 0.0 0.0 0.00 0.13 0.00 85 1211.6
20260506111139 33 183 0.0 0.0 0.00 0.13 0.00 84 1211.6
20260506110632 33 183 0.0 0.0 0.00 0.13 0.00 84 1211.6
20260506110121 33 183 0.0 0.0 0.00 0.13 0.00 84 1211.6
20260506105615 33 183 0.0 0.0 0.00 0.13 0.00 84 1211.6
20260506105115 33 183 0.0 0.0 0.00 0.13 0.00 84 1211.6
20260506104609 33 183 0.0 0.0 0.00 0.13 0.00 83 1211.6
20260506104103 33 183 0.0 0.0 0.00 0.13 0.00 83 1211.6
20260506103557 34 183 0.0 0.0 0.00 0.13 0.00 83 1211.6
20260506103047 34 183 0.0 0.0 0.00 0.13 0.00 83 1211.5
20260506102545 34 183 0.0 0.0 0.00 0.13 0.00 83 1211.5
20260506102039 34 188 0.0 0.0 0.00 0.13 0.00 83 1211.5
20260506101527 34 188 0.0 0.0 0.00 0.13 0.00 82 1211.5
20260506101342 34 188 0.0 0.0 0.00 0.13 0.00 82 1211.5
20260506101251 34 188 0.0 0.0 0.00 0.13 0.00 82 1211.5
20260506100015 34 188 0.0 0.0 0.00 0.13 0.00 82 1211.6